Terminal Aerodrome Forecast
Issued by NWS

Home | Current Version | Previous Version | Text Only | Print | Product List | Glossary On
Versions: 1 2 3 4 5 6 7 8 9 10 11 12
000
FTUS46 KHNX 262320
TAFVIS
TAF
KVIS 262320Z 2700/2724 VRB03KT P6SM SCT050 BKN250
     FM271200 10006KT P6SM BKN050 PROB30 2712/2715 P6SM -RA BKN025
      OVC050
     FM271500 27007KT P6SM OVC050 PROB30 2715/2718 P6SM -RA OVC025
     FM271800 31008KT P6SM BKN100=

USA.gov is the U.S. government's official web portal to all federal, state and local government web resources and services.